Theta_e
303 303 303 302 302 301 303 303 303 303 303 302 301 301 299 298 294 293 292 294 295 297 299 297 300 302 302 302 303 302 302 303 303 303 303 303 304 304 303 303 304 305 307 308 309 309 310 311 311 313 313 314 316 318 319 321 323 320 319 320 321 324 324 325 327 330 331 332 332 332 332 332 332 332
303 303 302 302 301 301 302 302 303 303 303 301 300 300 300 299 295 294 292 292 296 296 299 299 298 301 301 301 301 302 301 303 301 302 301 302 303 303 302 302 303 303 303 303 304 306 308 308 309 310 311 312 313 315 316 318 320 323 319 320 321 321 323 326 325 326 330 331 331 331 331 332 332 332
302 301 300 301 300 302 302 302 302 302 301 300 299 299 300 299 298 296 294 291 295 299 296 298 300 300 300 301 301 300 301 302 302 302 302 302 303 303 303 303 304 304 303 303 303 303 303 305 306 307 308 309 310 312 314 316 318 318 318 318 318 319 323 326 327 326 328 329 329 330 331 331 332 332
300 300 300 299 299 300 300 301 300 300 300 300 299 299 299 298 298 297 294 292 292 297 297 298 299 299 299 300 299 300 300 301 303 302 301 302 304 302 303 303 304 304 303 302 302 300 300 302 303 305 307 309 310 311 313 314 313 311 312 318 317 316 319 322 322 322 326 328 329 330 330 331 331 331
299 299 299 299 299 300 300 299 299 299 298 298 298 299 297 296 297 296 294 291 291 295 298 297 297 298 299 298 299 298 299 300 301 302 302 302 303 302 303 303 303 303 303 302 301 300 300 300 301 302 303 304 306 308 308 307 307 309 312 318 316 313 313 317 320 322 325 327 328 329 329 330 330 330
298 299 298 298 298 299 298 299 297 297 297 296 296 296 296 295 295 296 293 291 290 290 294 295 297 297 298 295 298 297 298 298 300 299 300 301 302 301 302 302 303 303 302 302 301 300 300 300 300 300 301 301 301 302 303 304 305 307 309 313 314 311 310 312 316 319 322 325 327 328 327 327 329 328
297 298 298 297 298 299 298 298 297 298 296 296 295 295 295 295 295 294 294 292 290 290 291 294 294 295 295 295 296 297 297 298 298 298 299 299 300 301 302 302 303 302 302 301 301 300 300 300 300 300 301 301 301 301 302 303 304 304 305 308 310 310 309 310 312 316 319 322 324 325 325 324 323 324
297 296 297 297 298 298 297 297 296 297 296 295 295 295 295 294 293 294 294 293 292 290 289 292 293 294 293 294 296 296 297 297 297 298 298 299 299 300 301 301 302 302 302 301 301 300 300 300 300 300 301 301 301 301 302 303 303 304 305 306 307 307 307 307 308 311 315 318 321 321 318 319 320 322
297 296 296 296 298 297 296 296 295 296 296 295 295 294 294 293 293 293 293 293 293 291 290 291 293 294 294 295 296 296 295 295 296 297 297 297 298 299 301 301 301 301 302 302 302 301 300 301 301 300 300 300 301 301 302 303 303 304 304 305 306 306 306 306 307 308 309 311 312 311 311 311 312 317
297 296 296 297 297 296 295 295 295 296 295 294 294 294 293 293 293 293 293 293 292 292 291 291 290 293 293 293 295 296 296 294 293 294 296 297 298 298 298 299 299 301 300 301 301 301 300 301 301 301 301 301 301 302 302 303 303 304 304 305 305 306 305 306 306 306 306 306 307 308 308 309 309 312
297 297 296 297 297 296 295 294 294 295 295 294 293 294 294 294 293 292 292 292 291 291 290 290 291 291 293 293 292 294 295 294 294 292 292 293 296 296 296 296 298 299 299 300 301 301 301 300 300 299 300 301 301 302 303 303 304 305 305 305 305 305 306 306 306 305 304 304 304 304 304 305 307 309
297 297 297 297 296 296 295 294 295 294 293 293 293 293 294 293 293 292 292 292 291 291 290 289 289 290 291 292 294 294 294 292 292 293 292 290 291 292 294 295 294 296 297 297 298 300 300 300 301 301 301 302 302 304 305 305 305 306 305 305 305 305 305 305 305 305 304 304 304 303 302 302 302 306
297 296 296 297 296 296 294 293 293 293 292 292 291 292 293 293 292 292 291 291 290 290 289 289 290 289 289 290 291 291 290 290 289 292 292 290 291 291 291 293 295 296 296 297 297 298 299 299 300 301 302 303 304 306 307 308 307 307 306 305 305 305 304 304 304 304 304 304 304 303 303 302 302 303
296 296 296 297 295 294 293 293 293 292 292 292 292 292 292 292 291 290 290 289 290 289 288 288 288 287 288 289 290 290 291 291 292 290 290 288 290 290 290 291 294 297 296 295 295 296 299 298 299 300 300 302 303 304 305 309 308 307 305 305 305 305 304 303 303 303 304 303 303 303 303 302 302 303
295 295 296 297 296 295 293 294 293 292 291 291 291 291 292 292 291 290 289 289 289 288 287 288 288 287 287 288 290 290 290 290 290 289 289 289 289 287 286 285 290 295 296 295 294 295 300 299 297 299 300 300 301 303 305 305 306 306 306 305 305 304 304 303 303 303 303 302 302 302 302 301 301 301
295 295 296 296 296 296 294 294 294 292 291 291 291 291 291 291 292 292 291 290 288 288 287 287 287 287 287 288 289 289 289 288 288 289 289 289 287 286 286 286 286 292 296 295 294 293 299 301 299 299 300 300 301 302 304 304 304 304 304 304 304 303 303 303 303 303 303 302 302 301 301 301 300 300
294 295 295 295 295 295 293 294 293 291 291 291 291 292 292 293 292 290 290 291 292 291 288 287 287 287 287 287 288 290 290 290 287 288 288 288 287 287 287 288 290 293 297 295 295 293 297 299 298 298 300 302 302 304 304 304 303 303 304 304 303 303 302 302 303 303 302 302 301 300 300 300 299 299
294 294 293 294 294 294 294 294 291 289 290 290 292 293 294 293 293 292 292 291 292 291 290 289 287 289 290 288 290 291 291 289 288 287 286 287 286 287 288 291 293 296 300 297 293 294 296 298 297 296 300 303 304 305 305 303 303 303 303 303 302 302 302 302 302 302 301 301 300 300 300 299 298 298
294 294 293 293 293 292 292 293 288 288 288 289 291 292 292 292 293 293 293 293 292 292 292 291 290 290 291 291 291 292 292 291 291 289 287 287 288 290 292 294 296 299 299 298 295 290 295 300 295 297 301 303 304 307 305 302 303 302 302 302 301 301 301 301 301 301 301 300 300 300 299 298 297 297
295 294 292 292 293 291 291 289 285 286 287 288 290 290 291 291 292 293 293 292 291 292 291 292 292 292 292 291 293 294 293 292 292 291 290 290 290 289 290 291 293 295 299 300 296 294 295 299 296 298 301 303 303 304 307 302 302 302 302 301 301 301 300 300 300 300 300 300 300 299 298 297 297 297
294 294 292 292 292 289 290 287 284 284 286 288 289 289 290 290 290 291 292 291 290 290 290 290 290 290 290 291 291 291 291 293 291 289 287 287 287 287 287 289 291 292 295 297 296 294 293 296 295 295 298 300 302 303 307 307 301 301 301 301 300 300 300 300 300 300 299 299 299 298 297 297 297 298
294 293 289 290 291 289 288 285 284 284 286 287 288 289 289 288 288 289 291 291 291 291 291 291 291 291 291 291 292 292 292 292 292 288 285 286 287 286 287 286 289 292 295 296 296 292 292 295 295 295 297 298 301 305 306 306 303 300 300 300 300 300 300 299 299 299 299 298 298 298 297 298 301 308
294 293 292 289 288 287 286 284 284 284 285 287 287 288 288 286 286 288 289 288 289 291 292 293 293 293 294 295 295 295 293 293 293 292 289 288 286 285 286 287 288 288 292 294 295 289 291 293 295 295 295 296 301 305 305 303 305 305 305 303 304 300 300 299 298 298 298 298 298 298 298 300 303 311
293 293 293 291 286 285 284 284 284 284 283 285 287 288 286 285 284 287 287 288 290 291 291 292 293 293 294 295 295 295 294 293 293 292 292 291 289 287 286 287 286 286 287 292 294 290 292 295 293 296 296 296 296 300 303 304 305 306 306 305 304 301 300 299 298 297 298 298 297 298 298 298 302 311
292 291 291 292 288 284 284 284 284 284 283 284 286 288 285 284 285 285 286 289 290 291 292 292 292 293 293 293 293 292 292 292 292 292 294 294 294 291 288 287 287 287 289 292 293 295 293 295 294 298 298 298 299 299 301 302 305 305 306 306 305 306 307 306 303 302 297 297 297 297 297 299 302 306
292 291 290 291 288 284 284 284 284 284 284 283 287 286 282 283 283 285 288 290 291 291 291 291 291 291 291 291 291 291 291 291 292 292 293 293 293 295 295 292 289 287 288 294 295 296 295 294 296 296 297 298 300 301 300 302 304 304 306 306 306 307 307 306 305 304 304 303 303 301 299 298 298 299
291 291 290 290 286 284 284 284 284 284 284 285 286 283 283 284 283 286 289 290 290 290 290 290 290 290 290 289 289 290 289 290 292 293 294 294 294 294 295 297 297 294 295 299 300 299 297 294 296 295 296 297 298 300 301 300 301 305 304 305 305 306 307 306 304 304 305 304 302 298 298 297 297 297
290 289 289 287 284 284 285 285 285 285 285 286 284 284 284 284 286 288 288 288 289 289 288 289 289 289 290 289 289 289 290 291 292 294 295 294 295 295 295 296 297 298 297 298 300 300 299 296 296 297 298 297 296 297 298 302 303 304 302 304 304 305 306 305 304 304 304 304 303 303 302 301 302 302
290 287 285 284 285 285 285 286 286 287 287 286 285 285 285 287 288 287 287 287 288 287 287 287 289 289 289 289 290 291 291 293 294 294 294 295 296 295 295 296 297 297 298 298 297 298 299 298 297 299 300 300 298 301 302 301 302 302 303 302 301 304 305 305 304 303 302 303 303 303 302 303 303 304
286 285 285 286 287 287 287 289 289 289 289 286 286 286 287 288 287 287 286 286 286 287 286 287 287 288 289 290 291 292 292 292 291 292 292 292 293 294 293 294 295 297 297 298 297 297 298 299 299 299 299 300 299 301 302 301 302 303 302 302 303 303 305 305 304 303 302 301 302 303 304 304 303 303
291 290 290 289 287 287 287 287 288 288 288 288 288 288 287 288 287 287 286 286 286 287 286 287 288 289 290 291 291 290 291 291 291 292 291 291 292 292 293 293 293 294 296 297 297 297 297 297 298 299 297 297 300 302 303 303 302 302 303 305 303 302 303 305 304 303 302 301 302 302 303 303 303 304
291 292 291 291 291 291 291 290 290 289 289 288 287 287 287 287 287 286 286 286 288 288 288 288 288 289 289 288 289 289 290 290 291 292 291 291 291 292 292 291 290 292 294 295 296 297 296 297 297 298 300 300 299 301 304 303 302 302 301 303 303 305 305 303 303 303 303 301 300 300 301 302 302 304
291 292 291 290 290 289 289 288 288 288 287 287 287 288 287 287 286 286 285 285 286 286 287 287 287 287 287 287 288 288 289 290 290 292 291 291 291 291 291 289 289 289 290 292 294 295 296 297 298 297 300 301 302 301 302 301 302 303 303 302 302 302 303 304 303 303 304 302 300 300 300 301 302 303
289 291 290 289 288 288 287 287 286 286 287 286 286 286 286 286 285 285 285 285 285 286 286 286 287 286 287 287 287 287 287 288 289 290 289 291 291 289 289 288 288 289 290 291 291 292 293 295 296 297 299 301 302 301 302 301 299 300 303 303 302 301 303 303 303 304 304 304 302 299 299 299 300 302
290 289 288 288 288 287 287 287 287 286 286 286 286 285 285 286 285 284 284 284 285 285 286 286 286 286 286 286 286 286 286 288 289 290 291 291 291 289 288 287 287 288 289 290 290 292 292 293 293 292 294 297 299 300 297 300 300 299 300 301 303 302 302 304 303 303 304 304 303 301 300 299 299 301
288 289 288 288 288 287 287 286 286 286 286 285 285 285 285 285 285 284 284 284 285 285 285 285 285 285 285 285 286 286 286 286 288 289 289 290 289 288 288 288 287 288 290 290 290 292 292 292 291 290 289 290 291 292 295 296 296 299 298 299 302 304 304 303 304 304 303 303 303 303 301 300 300 301
288 289 288 288 288 287 286 286 286 286 286 285 285 285 284 285 284 285 285 285 285 284 284 285 285 285 285 285 285 284 286 286 287 288 288 289 288 288 287 287 287 288 289 289 290 291 292 291 291 289 288 287 287 287 290 296 295 296 299 297 298 300 302 304 303 302 303 303 303 303 302 302 301 301
289 289 288 288 287 286 287 287 286 285 285 285 286 286 286 285 286 285 286 285 284 284 284 285 285 284 285 284 284 285 285 286 287 288 287 288 287 286 286 285 286 288 288 289 290 291 291 291 290 290 289 287 286 286 287 290 293 296 295 298 298 299 300 301 301 301 301 303 302 302 302 301 300 302
289 288 288 288 287 287 286 286 285 285 286 286 286 285 285 285 285 284 284 283 284 283 284 284 284 284 284 285 285 284 285 285 287 287 287 287 286 285 285 285 286 288 288 289 290 290 290 290 290 290 290 289 287 288 290 288 289 294 298 295 299 300 300 301 300 302 302 301 302 302 301 300 297 293
288 289 289 287 287 287 286 286 286 286 287 287 286 286 285 284 284 284 283 283 283 284 284 284 283 284 284 284 284 284 285 285 286 287 286 286 287 286 286 285 286 287 287 287 288 289 289 289 290 290 290 291 292 294 294 293 293 294 295 299 294 297 300 301 300 301 300 302 301 299 298 299 297 300
288 288 289 288 287 286 286 286 287 287 287 287 287 286 286 285 285 284 283 283 283 283 283 283 283 283 284 284 284 283 282 283 285 285 285 285 285 285 285 285 286 286 286 286 287 287 288 290 290 287 291 294 294 295 294 292 291 293 294 296 293 292 292 294 300 300 301 303 302 300 296 296 294 298
288 288 288 288 286 286 287 286 286 287 288 287 287 286 286 285 285 283 283 283 283 283 283 283 283 282 283 283 283 282 282 282 283 284 285 285 285 286 285 286 286 286 286 285 286 287 290 292 293 293 293 292 291 289 288 289 290 292 293 296 298 295 293 292 292 293 297 300 302 296 296 296 298 293
288 289 288 287 287 287 287 286 287 287 287 287 286 287 286 285 285 284 284 283 283 282 282 282 282 282 282 283 283 282 282 282 283 284 286 286 285 285 285 286 286 286 287 287 287 289 290 291 291 291 291 291 289 289 287 288 290 291 292 294 294 295 295 293 292 292 292 290 291 295 300 300 297 294
290 288 288 288 287 287 286 286 287 287 287 287 286 286 285 284 283 283 283 282 282 281 281 281 281 282 281 282 282 282 283 282 283 284 284 285 285 286 286 286 286 286 287 286 287 287 289 289 290 290 288 287 288 287 287 288 289 290 291 291 292 293 293 295 298 295 294 292 291 291 291 291 292 292
290 289 288 288 287 287 286 287 287 287 287 287 286 286 285 284 283 283 283 283 282 282 281 281 281 281 281 281 281 281 282 283 284 284 285 285 286 286 286 286 285 285 285 286 285 286 287 288 289 289 288 288 288 287 288 288 289 289 290 289 289 290 293 293 292 291 292 292 291 290 291 291 292 292
Wind_Speed
7 8 9 8 7 8 8 8 8 8 8 9 9 9 10 10 12 13 13 11 12 12 12 13 12 13 15 14 13 13 13 14 15 13 13 13 12 13 16 20 22 22 23 23 22 20 20 18 18 18 19 19 19 19 20 21 24 23 20 21 21 20 17 16 17 13 11 11 13 13 13 12 13 14
7 8 8 8 7 9 9 8 9 8 9 9 9 9 9 9 11 13 15 15 12 12 13 13 14 15 16 15 14 13 13 15 17 15 15 13 12 14 18 21 21 19 18 18 20 19 16 17 19 20 21 21 21 21 21 21 22 25 23 17 13 14 16 18 12 13 12 12 13 14 13 13 13 14
8 9 9 9 8 9 9 9 9 8 9 9 9 10 10 10 11 12 13 15 12 12 14 14 15 16 17 15 15 14 14 14 17 15 14 15 16 19 16 15 14 13 12 12 13 15 17 19 20 21 22 22 22 21 21 21 22 23 25 16 12 10 8 11 10 15 15 13 14 14 13 13 13 14
8 9 10 10 9 9 9 9 9 9 9 9 9 9 9 10 11 11 12 14 16 13 13 15 15 16 16 16 16 16 14 14 19 16 16 17 17 13 12 13 11 8 9 13 10 9 16 20 20 20 20 21 21 20 19 19 19 19 22 17 11 8 7 8 11 17 14 13 14 14 13 13 13 14
9 10 10 10 10 10 10 9 9 9 10 10 10 9 10 10 11 12 13 14 16 14 12 14 14 15 15 15 15 16 15 16 16 16 16 16 16 15 11 11 13 11 6 6 9 13 12 15 18 19 20 20 19 18 17 16 16 18 19 15 11 9 8 9 10 13 13 12 13 13 12 12 13 13
8 9 9 10 10 9 10 10 11 10 10 11 11 11 11 11 12 12 13 14 14 17 15 14 15 15 15 15 15 16 17 17 17 18 16 15 15 14 15 14 11 8 10 8 8 11 14 14 16 19 20 20 17 16 15 14 15 17 17 17 14 10 9 11 11 12 12 12 12 13 12 11 10 9
9 9 9 10 9 8 10 10 10 10 11 11 12 13 12 13 13 13 13 13 15 17 16 15 16 15 15 15 16 17 15 17 17 18 17 16 14 14 15 15 15 15 9 10 10 12 14 17 17 17 18 18 18 17 16 15 15 15 16 15 15 12 10 11 13 12 12 11 11 12 10 5 2 4
9 9 9 9 9 9 10 10 10 9 11 11 11 13 13 13 13 13 13 13 13 15 17 17 16 15 15 15 16 15 16 16 16 15 16 17 16 16 15 15 15 18 21 15 13 13 15 15 16 18 16 17 18 18 16 14 14 15 15 15 16 14 11 12 12 12 11 10 9 8 7 4 4 5
8 8 8 9 9 9 10 10 10 10 13 12 12 13 13 13 13 12 13 14 14 15 16 17 15 14 14 14 15 16 15 16 16 16 17 16 16 17 16 16 15 20 21 21 17 16 16 14 14 16 18 17 17 17 16 15 13 14 14 15 16 15 15 12 11 11 10 9 8 7 7 6 6 9
7 7 8 8 8 9 10 10 10 11 13 12 12 14 13 13 13 14 15 14 15 15 15 16 16 14 14 15 14 15 15 16 16 16 16 16 16 16 17 16 14 14 14 14 15 15 14 14 12 12 14 14 15 17 17 16 14 13 14 15 16 16 15 13 11 10 10 9 9 8 8 9 9 9
7 7 7 7 8 9 10 11 11 12 12 11 13 14 14 14 15 15 14 15 16 15 16 15 15 15 14 14 15 15 15 15 14 15 16 16 14 15 16 17 15 14 17 20 22 20 18 18 18 19 19 18 17 17 18 19 15 13 14 14 16 16 15 13 10 9 9 8 8 8 9 10 10 11
6 7 7 7 8 9 10 11 11 12 12 12 12 12 13 15 16 15 15 15 15 15 16 15 15 13 14 14 13 14 14 14 13 12 15 18 19 17 16 15 16 16 16 17 16 17 17 16 17 20 21 22 20 18 19 19 18 15 14 14 15 15 15 12 10 9 9 8 8 9 9 10 11 11
7 7 7 6 8 9 10 14 13 13 13 12 13 13 14 15 15 14 15 14 15 15 15 16 14 15 14 14 15 15 14 14 15 15 15 17 16 17 18 18 15 15 17 16 16 15 15 14 12 12 12 11 13 14 17 16 16 15 14 14 15 16 14 12 11 10 9 9 9 9 10 10 11 11
7 7 7 6 8 8 10 13 13 14 15 16 13 13 14 15 15 15 15 15 15 15 16 15 16 16 15 15 15 16 16 15 16 16 16 16 17 17 18 19 15 14 15 15 15 14 14 12 12 11 11 11 11 11 11 10 10 12 15 15 16 16 14 12 11 10 9 9 10 10 9 9 9 8
7 7 8 7 7 7 11 12 13 14 17 17 17 17 17 15 13 14 15 15 16 16 16 16 16 16 17 16 16 16 16 15 16 16 16 17 17 16 16 19 18 13 12 12 12 15 12 11 12 11 11 11 11 10 11 5 4 7 10 15 16 15 12 11 11 9 9 9 10 9 9 9 9 9
7 8 7 7 7 7 10 11 11 15 17 17 17 17 15 15 14 10 11 14 15 16 16 17 16 16 16 16 17 16 15 16 17 17 16 16 17 17 17 17 17 15 13 12 12 15 11 9 11 11 10 11 11 11 9 1 6 8 8 13 15 13 11 11 11 10 9 10 9 9 9 9 10 11
7 7 7 8 7 7 12 9 12 14 15 17 18 17 14 12 14 14 12 12 13 15 15 15 17 16 16 17 17 17 17 15 18 18 17 17 18 17 19 17 16 17 14 13 11 12 10 9 10 11 10 9 10 10 10 10 11 10 12 14 14 12 12 11 10 9 9 10 9 9 10 10 11 12
6 7 8 8 8 9 10 9 12 14 14 15 15 13 12 12 13 13 13 14 13 14 13 14 16 16 16 16 17 19 18 17 16 15 17 18 20 19 19 21 19 18 14 10 10 10 10 8 8 11 10 7 8 9 8 7 10 12 11 14 13 12 12 10 9 9 9 8 8 10 12 12 13 13
5 6 7 8 8 9 10 9 14 14 15 15 13 13 13 13 13 13 13 13 13 13 12 14 15 16 16 16 17 17 16 17 14 13 16 18 17 16 18 18 17 13 10 9 8 10 10 5 9 10 6 6 7 7 4 5 9 7 8 12 12 12 11 9 9 9 8 8 9 11 12 11 13 15
4 5 7 8 8 10 10 14 19 17 15 15 14 14 14 13 13 12 12 15 14 15 14 14 16 15 17 20 18 16 15 13 10 13 14 16 15 17 15 14 12 10 6 6 8 9 9 7 7 6 7 7 8 7 6 9 9 10 9 8 10 10 9 9 8 8 9 10 11 12 11 10 12 17
4 4 6 7 8 10 10 15 18 18 19 13 13 13 14 13 13 13 13 15 17 15 14 16 20 21 22 21 19 18 17 7 8 10 14 15 16 15 14 14 13 10 8 9 9 9 10 6 7 9 8 8 7 6 5 6 8 10 8 9 11 10 9 8 8 8 10 12 13 15 15 11 15 20
4 5 1 4 7 10 10 16 18 18 17 13 13 13 13 14 14 14 13 13 14 16 16 16 14 16 17 15 14 11 8 6 6 7 12 15 13 14 12 14 13 13 5 7 11 10 8 7 7 7 8 7 3 3 5 6 8 12 9 9 11 10 9 9 8 9 10 14 15 16 18 17 14 10
5 5 5 10 9 9 13 16 17 18 16 12 12 12 12 13 14 14 16 15 16 16 16 15 15 15 16 16 14 15 15 14 13 6 8 10 11 11 11 12 13 11 8 10 12 9 8 7 5 6 5 1 2 4 4 6 6 7 6 7 8 11 11 10 9 11 11 13 15 15 16 18 12 8
6 6 5 5 13 13 14 16 16 17 17 13 12 11 11 12 14 14 16 16 16 17 16 16 14 14 14 14 15 14 14 14 14 11 9 8 9 10 10 11 11 9 8 9 14 10 6 5 5 5 4 1 3 2 5 7 8 8 8 7 8 10 12 12 9 9 10 10 13 14 9 5 8 8
6 6 6 6 12 13 14 15 16 16 17 16 12 10 10 12 16 20 15 16 19 14 14 13 14 14 13 14 14 14 14 14 14 15 13 8 6 6 9 11 11 10 9 9 15 10 4 4 5 3 1 1 1 1 6 7 6 6 6 9 9 8 7 7 7 6 8 9 7 6 7 8 9 7
6 6 7 7 10 14 15 16 16 17 16 18 11 11 16 21 22 17 15 13 12 12 12 12 13 13 13 14 14 15 15 15 16 16 15 15 14 8 6 8 10 11 11 10 13 10 10 7 10 7 4 2 2 4 6 6 7 7 8 7 8 8 8 8 7 7 7 6 6 6 9 11 11 10
6 6 7 7 12 15 16 16 16 16 17 14 9 17 19 19 22 20 10 12 11 11 12 12 11 13 13 14 14 15 15 16 17 16 15 14 15 14 12 10 6 9 10 8 10 11 8 9 10 9 8 8 2 4 4 8 7 7 8 8 8 8 7 7 8 7 7 7 6 11 11 11 12 12
6 6 6 8 13 15 16 16 16 17 15 8 14 16 18 20 19 10 11 11 11 12 11 11 11 11 12 12 13 14 14 15 15 16 15 14 14 14 13 14 12 11 12 11 10 10 9 8 8 9 9 7 7 4 6 8 7 8 9 8 7 7 7 7 7 7 7 7 7 6 6 6 4 6
6 6 9 13 13 14 15 14 14 11 6 8 12 14 14 15 9 11 11 11 11 11 12 11 12 12 12 12 12 14 14 15 14 15 15 14 13 13 13 13 11 10 10 11 13 13 12 11 10 9 9 6 7 3 6 8 8 8 8 8 7 7 7 7 6 6 6 6 6 6 6 6 6 5
10 11 12 13 12 10 8 9 9 8 9 11 11 11 11 9 9 10 11 11 11 11 12 11 12 12 12 12 12 14 13 13 14 15 16 16 15 15 14 13 12 11 11 12 13 13 13 12 11 11 10 8 9 6 6 6 6 6 6 7 8 7 6 7 6 6 6 6 5 5 5 5 6 4
5 5 7 8 11 12 14 13 13 10 10 9 9 9 10 9 9 10 10 11 11 11 11 11 11 11 12 12 12 12 13 13 13 14 15 15 15 15 14 12 12 13 12 12 12 13 13 12 11 10 9 9 9 8 5 4 7 6 6 6 7 6 7 6 7 6 6 6 6 5 5 5 4 3
8 7 8 7 6 6 7 7 8 8 8 8 9 9 10 9 9 11 12 11 10 10 10 10 11 11 12 12 12 11 12 13 13 14 15 15 15 15 14 13 13 13 13 13 13 14 14 13 12 10 8 7 8 9 5 4 5 5 5 4 5 5 7 7 6 7 7 7 6 4 5 4 4 4
7 6 6 6 6 7 7 8 8 8 9 9 9 9 10 10 10 10 10 11 11 11 11 11 12 12 12 12 12 11 12 13 13 14 15 15 15 14 13 13 13 14 15 15 14 14 14 13 13 12 8 7 8 9 7 6 6 5 3 4 5 5 5 5 6 7 7 6 6 5 5 4 3 3
6 6 6 6 6 7 7 8 8 9 9 9 9 9 10 9 10 10 10 11 11 11 11 11 11 12 12 12 12 12 12 12 12 13 15 14 14 14 13 13 13 13 13 13 13 13 13 13 13 11 9 6 6 11 11 8 7 8 4 3 3 6 6 4 5 6 6 6 6 6 5 5 4 3
4 5 6 6 6 7 7 7 8 8 9 9 9 9 9 9 10 10 10 11 11 11 11 10 11 11 11 11 12 12 12 13 13 13 13 13 14 13 13 13 13 14 14 13 13 13 13 13 13 12 11 9 5 7 14 12 8 7 8 7 3 3 4 6 5 5 5 5 6 6 6 5 4 4
4 4 5 5 6 7 7 7 8 8 8 7 8 8 9 10 9 10 10 11 11 11 10 11 11 11 11 11 12 11 11 13 12 13 13 13 14 14 13 12 12 12 12 12 13 12 12 12 12 12 12 11 10 8 8 10 10 8 7 6 6 4 2 5 5 5 5 5 6 5 5 5 5 5
3 4 4 5 6 6 6 7 7 7 7 7 7 9 9 10 10 10 11 11 10 10 10 11 10 11 11 11 11 10 11 12 13 12 12 13 13 13 14 13 13 12 12 12 11 12 11 11 11 11 11 10 9 8 7 8 6 5 8 6 5 5 5 1 4 4 4 3 4 3 2 4 6 5
4 4 4 4 4 4 5 6 6 6 6 6 8 8 9 9 9 10 10 10 10 10 10 10 10 11 11 10 11 11 10 11 12 12 13 13 13 13 13 14 14 13 12 11 11 11 11 11 12 12 11 10 8 8 9 9 7 3 9 5 5 4 2 2 2 3 5 3 4 5 4 5 6 5
3 4 4 4 3 3 4 4 6 6 6 7 8 8 9 9 9 9 10 9 10 10 10 10 10 11 11 11 11 10 10 11 12 12 13 13 13 13 13 14 14 13 13 12 11 10 10 11 11 12 12 11 9 9 8 9 7 7 3 2 4 4 1 2 3 2 4 5 6 8 7 6 6 8
3 3 3 4 2 3 3 4 5 5 7 7 7 7 8 8 9 9 9 9 10 10 10 10 11 11 10 11 11 10 10 11 12 12 13 13 13 13 13 13 12 13 13 13 12 11 11 11 11 12 11 10 9 9 8 7 8 7 8 5 8 3 4 4 3 2 1 5 7 5 5 5 3 4
3 4 2 2 2 2 3 3 5 6 6 7 7 7 7 8 8 9 9 9 8 9 9 10 10 11 10 11 10 11 10 10 10 11 13 13 13 13 13 13 12 13 13 13 13 12 12 12 12 11 8 8 9 9 5 2 3 3 3 2 8 3 4 4 4 5 5 1 6 5 5 3 3 3
3 3 2 1 2 2 2 3 4 6 6 6 6 7 7 7 7 9 8 8 9 9 9 9 9 9 10 10 10 10 10 10 10 11 13 13 13 13 14 13 13 13 13 12 13 13 12 12 12 10 9 9 8 7 6 6 5 5 4 3 2 4 3 2 6 6 6 4 2 4 3 3 2 2
4 3 2 2 1 2 2 3 5 5 6 6 6 6 7 7 7 8 8 8 8 8 8 8 9 9 9 9 9 9 9 10 10 11 12 13 13 13 13 13 14 13 13 12 12 12 12 12 11 11 9 9 7 7 6 7 6 5 5 4 5 4 4 9 10 12 14 16 13 6 4 1 2 1
3 3 2 1 2 2 2 2 4 5 5 5 6 6 6 6 6 8 8 7 7 8 8 8 8 9 9 9 9 9 8 9 11 11 11 12 12 13 13 13 13 13 12 12 12 12 11 11 10 10 9 9 8 7 7 7 6 5 5 4 3 3 2 3 6 7 10 15 18 14 12 11 7 3
4 3 2 2 2 2 1 2 4 4 4 5 5 5 6 5 5 6 7 7 7 8 8 8 8 9 9 9 10 10 10 11 10 9 9 10 11 11 12 13 13 13 12 13 12 12 12 11 10 10 9 8 8 8 7 7 6 5 5 5 4 4 3 2 3 4 5 6 12 12 10 11 11 10
Wind_Direction
5 4 3 358 354 356 347 346 344 343 339 337 335 332 330 329 319 322 322 323 325 322 328 322 326 332 329 324 327 324 321 319 322 317 313 310 305 306 320 322 314 307 307 307 306 305 302 303 308 309 311 310 309 310 310 309 303 267 264 270 273 270 267 251 247 231 211 213 224 230 228 225 227 231
4 3 3 1 359 357 349 352 345 345 343 340 336 330 329 327 322 321 317 315 318 320 322 319 319 324 324 324 324 318 312 320 321 317 311 306 305 320 314 301 294 292 294 298 304 310 311 311 308 307 307 303 303 305 305 306 303 301 270 269 283 290 279 259 236 250 233 222 227 229 229 227 228 230
3 3 3 4 1 356 349 351 348 346 344 341 336 334 330 328 324 321 315 309 314 324 315 316 321 322 323 322 318 319 322 320 317 309 307 309 313 307 292 277 274 285 287 292 301 312 312 311 308 308 303 301 299 299 302 303 304 305 301 276 268 259 253 245 236 238 233 227 228 230 230 230 232 234
5 3 2 6 0 355 347 351 346 345 344 342 336 333 331 327 327 325 318 311 308 318 316 317 319 323 322 318 317 320 318 319 317 318 317 314 307 302 308 306 295 260 272 291 296 308 313 307 307 306 304 302 299 300 300 303 306 306 301 275 248 240 240 237 231 245 239 227 229 232 234 235 237 242
7 4 358 2 1 356 348 349 342 346 343 342 335 332 332 328 331 328 322 314 311 312 317 316 319 321 321 319 322 319 318 317 319 318 314 315 313 309 304 304 301 295 277 273 294 300 293 294 297 299 299 296 297 300 303 302 298 298 296 277 248 232 228 234 240 249 247 236 233 234 236 239 243 247
10 1 359 359 359 355 347 347 343 347 344 341 335 336 334 333 330 328 322 318 313 312 317 319 319 318 326 319 320 317 317 318 317 315 314 314 315 313 313 308 300 293 298 288 290 288 291 291 290 292 291 289 287 288 291 293 292 294 292 282 261 234 217 227 234 244 249 245 241 241 241 246 254 259
4 2 359 0 354 349 348 348 345 343 344 339 337 337 335 332 327 326 325 319 315 314 313 315 317 322 322 319 318 317 315 314 313 312 312 315 313 312 312 310 311 304 256 261 272 272 275 278 281 281 281 281 280 281 283 285 288 290 288 279 266 239 214 220 229 234 241 244 245 245 248 247 209 238
2 0 355 355 347 348 347 345 341 344 344 341 340 337 335 330 328 325 323 319 314 311 310 314 319 320 320 316 315 313 314 313 312 312 313 312 310 310 309 311 309 309 316 298 265 263 259 258 268 276 273 272 275 275 273 275 280 284 282 272 266 255 225 213 221 231 239 245 251 259 268 247 244 251
359 354 352 348 345 350 346 342 344 345 343 342 340 336 333 329 327 324 320 316 312 310 309 311 314 313 310 311 312 317 317 315 312 311 310 309 309 307 306 307 303 306 307 300 285 258 249 251 254 265 269 267 267 268 268 268 271 275 276 268 258 255 247 219 211 217 226 231 237 252 268 265 252 252
357 348 348 347 346 354 349 343 341 343 343 341 337 335 332 330 327 324 321 319 317 313 308 310 310 310 312 313 316 318 317 316 314 312 309 307 305 307 308 305 306 303 296 299 298 292 272 249 244 263 275 271 263 263 265 264 260 263 269 266 257 249 245 232 208 207 212 215 219 224 239 253 251 244
351 346 347 344 347 355 353 345 342 342 340 338 331 334 333 330 328 325 323 322 318 314 311 309 308 310 310 311 312 317 318 311 311 310 311 309 309 308 307 304 303 299 295 288 286 284 277 278 281 274 268 266 263 262 263 259 250 247 255 258 252 248 245 236 211 202 204 209 216 222 228 239 246 245
348 346 346 343 354 355 350 345 338 341 340 333 329 332 332 331 329 327 326 324 320 318 315 312 311 308 310 309 310 315 316 314 309 310 312 310 311 309 304 300 300 296 289 287 285 282 271 262 258 247 245 247 248 252 255 249 241 239 246 249 245 243 242 235 216 202 205 210 219 225 231 236 241 241
350 350 343 343 354 344 341 337 332 333 333 331 329 328 330 330 328 327 325 324 323 321 318 315 313 311 308 308 313 316 319 316 311 313 312 304 304 306 304 300 293 287 286 284 280 280 279 277 280 283 282 274 259 243 240 252 234 221 227 232 235 233 234 229 214 205 207 216 223 228 232 238 240 238
351 349 343 340 347 331 344 335 331 330 331 327 322 320 327 326 325 325 323 322 324 322 317 315 314 310 308 310 310 312 313 312 311 310 310 306 307 308 303 300 294 294 289 286 284 279 269 271 275 272 273 269 261 263 252 250 249 217 209 223 224 224 224 218 213 203 208 219 226 228 230 233 230 201
348 347 344 336 340 340 351 336 332 337 331 324 320 315 318 319 319 322 320 318 320 320 317 313 310 307 306 306 309 310 310 311 313 311 310 310 310 309 308 304 302 291 288 290 292 280 266 267 267 266 268 269 265 261 256 253 260 273 204 210 213 213 206 210 207 200 210 220 224 222 216 211 186 155
347 344 341 340 341 349 351 327 338 338 330 325 320 314 310 310 302 291 308 315 318 321 318 314 310 309 307 308 310 308 310 313 312 310 309 310 311 308 303 297 292 295 295 285 277 276 271 270 267 266 263 266 266 262 276 357 283 277 246 214 210 197 194 203 200 197 208 218 219 209 197 185 164 146
348 343 342 340 342 348 339 335 347 336 330 326 321 315 312 306 316 322 306 286 309 320 314 310 309 310 310 308 306 307 308 309 308 311 312 313 309 305 299 295 293 293 291 287 278 279 277 271 263 258 259 260 262 257 232 222 232 242 231 212 202 187 185 196 191 190 202 208 201 190 180 167 149 135
347 345 347 341 341 348 339 355 350 336 330 327 323 326 328 325 321 316 308 307 315 318 315 313 311 311 313 310 309 310 311 309 309 313 312 312 310 307 301 296 290 285 288 276 279 279 278 273 278 268 259 261 263 260 266 268 240 226 208 200 189 176 178 185 177 182 197 189 181 174 164 158 142 135
351 349 351 343 344 347 341 18 358 338 331 324 320 323 327 325 324 318 318 321 319 316 312 313 312 312 311 311 311 312 312 311 312 314 308 306 299 291 295 291 279 266 257 237 255 275 277 291 264 253 270 275 264 262 231 192 212 185 200 187 171 166 173 170 166 174 178 168 166 159 152 153 142 125
351 359 357 349 348 349 338 11 354 339 329 318 320 325 325 325 322 318 318 312 306 306 304 310 313 309 299 291 290 289 293 305 317 311 307 307 314 316 311 315 317 305 303 285 282 267 271 258 275 298 293 281 264 253 240 166 181 157 176 176 159 153 159 152 150 159 163 155 144 135 132 143 132 110
352 7 359 352 350 346 346 358 343 337 331 318 324 325 324 322 321 323 323 317 311 304 294 284 279 276 276 279 274 266 268 277 324 316 320 325 327 322 325 328 332 335 352 15 1 329 302 334 329 301 285 269 254 227 184 152 143 131 148 164 144 143 141 133 136 150 151 141 138 136 132 142 122 111
337 25 79 6 351 347 346 346 335 337 330 325 326 327 325 324 325 324 326 322 317 315 312 307 302 293 283 281 290 286 302 308 343 333 324 319 319 320 323 327 334 327 347 13 4 321 297 293 276 281 276 252 269 211 149 139 122 118 135 143 130 127 123 117 125 134 137 138 140 142 146 144 132 126
350 357 36 85 34 15 349 336 335 333 333 325 324 324 326 326 323 325 326 319 318 324 333 333 333 332 338 340 337 333 333 331 335 328 303 308 318 314 316 323 327 331 337 335 334 311 296 301 307 293 299 71 17 359 127 121 128 127 129 136 119 110 107 111 120 126 134 142 141 150 160 156 159 131
354 358 347 96 58 18 349 335 332 330 330 326 319 322 330 329 317 323 317 311 318 322 327 336 335 334 339 338 341 340 336 332 331 323 299 295 313 313 312 315 316 313 305 308 319 308 284 302 323 295 298 345 119 324 119 124 139 135 131 118 105 110 112 110 101 108 124 140 145 155 175 224 246 145
352 346 355 330 38 8 341 329 326 323 323 319 313 326 339 322 310 305 305 307 310 320 324 334 340 343 344 344 345 345 340 336 334 331 325 305 282 301 305 308 306 300 294 294 301 316 325 316 307 316 190 289 302 85 88 87 84 109 117 116 121 129 128 116 110 112 112 114 112 95 40 37 59 115
347 346 347 339 6 348 330 322 319 314 312 308 306 333 318 305 305 305 298 308 323 326 330 334 347 347 348 347 344 346 344 338 334 333 335 334 327 314 294 301 302 305 308 310 335 348 348 7 4 357 360 344 53 83 112 115 115 106 100 107 115 118 115 115 112 113 119 121 124 75 66 62 59 59
339 346 342 350 351 326 317 314 310 305 302 296 325 313 305 305 302 297 319 327 326 331 332 334 340 348 349 350 348 344 342 337 333 333 338 338 332 333 333 318 271 266 283 309 356 360 359 358 346 348 8 6 345 140 130 130 128 111 103 102 103 106 109 112 113 118 126 123 105 94 80 73 73 71
341 341 346 333 317 304 306 303 302 295 283 295 306 301 303 303 303 327 331 335 334 331 335 335 336 338 339 339 345 345 341 335 331 332 338 341 339 341 340 335 351 359 356 356 0 356 356 359 353 349 360 5 332 197 139 118 124 126 114 107 100 101 102 105 106 106 106 114 126 127 121 120 113 90
328 314 288 282 285 291 288 291 290 295 297 306 299 295 292 304 338 338 338 335 335 335 339 335 334 336 337 334 332 338 333 332 337 338 340 342 347 346 342 341 352 360 3 5 4 2 0 0 356 347 355 335 326 208 142 112 122 124 122 123 113 115 116 112 111 108 107 110 120 133 137 136 135 124
269 260 255 259 270 285 299 314 329 326 323 304 291 298 320 340 339 343 337 338 335 340 336 334 334 336 334 333 332 336 336 337 344 344 342 343 350 352 350 348 356 1 4 9 12 5 2 3 357 351 351 338 329 356 69 112 100 103 131 130 117 111 117 121 113 112 113 115 118 127 125 130 120 126
280 266 292 303 285 266 269 263 263 281 323 326 341 345 347 341 343 343 342 335 336 338 336 332 332 331 333 331 336 341 342 350 348 346 344 344 347 352 353 348 353 356 0 6 12 11 2 3 355 353 354 333 328 16 22 72 115 124 119 131 152 151 143 130 124 117 112 111 111 102 110 117 118 154
314 307 297 276 305 325 329 335 351 351 341 341 341 345 345 340 345 342 332 334 338 339 334 331 331 336 336 338 344 344 344 349 347 349 349 348 349 352 353 355 358 355 354 1 6 9 5 6 358 348 350 352 2 355 0 71 86 103 114 112 111 113 134 135 132 126 121 119 117 121 116 116 125 135
302 307 314 332 327 341 339 348 348 349 344 345 341 343 347 340 348 346 347 349 344 339 336 338 339 339 341 340 345 345 350 354 348 352 350 351 354 352 357 360 358 356 354 356 0 3 2 2 0 348 343 5 11 6 8 43 45 71 105 119 132 108 113 137 142 136 140 134 126 128 119 119 123 130
293 316 329 335 339 340 343 347 347 346 346 344 341 343 344 343 350 345 347 348 340 337 336 338 338 341 340 341 343 345 346 347 345 349 351 353 356 355 357 358 357 354 353 355 357 360 358 0 359 353 349 7 39 34 23 21 38 10 19 106 125 123 124 148 143 151 167 157 132 133 130 132 126 126
302 332 332 338 343 342 340 346 345 344 343 345 340 342 344 346 348 346 348 346 337 337 340 339 341 342 342 340 341 343 344 346 353 354 354 356 358 358 356 356 353 353 354 354 355 356 359 3 2 360 0 7 35 77 53 28 16 19 12 22 30 104 135 133 140 158 190 167 151 142 140 133 140 150
309 329 333 338 345 341 338 342 344 342 343 341 340 341 343 345 349 346 348 340 336 338 339 338 340 342 340 338 338 337 342 343 346 352 353 357 356 355 356 357 349 348 353 355 352 355 356 4 6 6 5 4 3 11 32 48 38 8 10 11 27 23 112 134 143 152 179 174 176 176 166 160 143 153
308 328 336 336 342 339 340 338 341 340 341 338 339 343 342 344 346 345 342 337 341 337 338 331 342 340 338 338 336 337 341 350 356 352 356 357 356 354 353 353 351 348 352 354 354 353 358 2 5 7 2 1 1 354 354 357 20 40 15 360 6 7 353 346 160 164 172 169 175 178 146 140 133 134
321 332 335 333 339 336 338 336 335 336 338 334 339 339 343 341 341 341 343 344 343 338 337 340 342 339 338 340 339 339 343 351 352 356 356 357 356 355 352 349 346 350 351 352 354 358 357 360 1 2 358 356 345 347 336 335 339 60 76 8 340 351 339 318 259 178 150 165 139 96 93 89 102 135
306 324 321 332 333 335 337 337 331 332 332 337 338 342 341 339 339 344 346 344 340 338 335 339 341 339 335 341 342 341 344 348 356 356 355 353 356 353 351 347 345 348 350 352 356 358 358 356 357 354 350 342 337 327 319 313 309 305 358 75 327 315 351 309 278 295 162 149 98 79 71 79 72 85
293 292 306 319 325 332 334 334 330 330 332 339 336 344 337 339 340 348 344 341 339 336 335 338 336 336 338 342 343 342 341 341 349 355 350 348 351 350 351 346 346 347 347 349 351 354 356 355 351 349 338 330 323 320 306 280 269 267 274 232 198 254 317 328 302 262 162 132 114 116 123 133 114 146
298 286 302 311 317 328 329 330 330 331 327 336 334 340 335 339 340 351 335 332 331 338 337 338 340 338 339 340 344 343 338 340 343 351 348 343 346 348 347 343 353 352 348 346 347 349 351 350 336 311 302 334 338 324 308 322 329 339 350 53 168 269 349 298 328 339 332 160 152 138 141 127 125 146
290 285 284 290 317 317 317 325 328 322 326 333 337 339 337 339 345 333 324 339 341 342 338 340 338 338 338 340 342 342 340 342 340 348 349 347 346 347 350 353 353 351 351 348 346 344 342 342 339 347 351 353 353 344 347 349 335 333 337 327 86 153 217 295 58 58 43 350 141 134 114 105 126 162
249 269 276 287 288 300 316 322 317 320 327 330 334 334 335 340 341 343 343 343 345 341 342 337 337 336 336 336 340 337 338 341 337 341 350 351 347 347 348 350 350 348 350 346 345 342 345 343 352 352 352 1 359 345 346 341 326 333 334 357 8 16 60 93 83 66 51 42 34 26 358 343 188 175
251 258 261 260 277 285 291 306 311 318 323 327 328 331 342 336 343 341 340 343 342 340 338 333 334 335 334 334 332 334 338 338 333 336 344 351 349 348 345 347 346 347 348 351 346 347 345 345 358 356 352 358 357 350 347 339 347 347 346 359 3 23 66 85 85 70 58 38 19 11 27 40 42 55
238 244 262 272 277 274 290 305 305 317 317 323 326 335 332 339 345 338 340 339 340 333 330 330 330 333 330 331 331 332 334 328 329 338 340 342 352 350 348 347 347 347 351 351 348 348 349 349 357 358 353 356 356 352 348 340 358 357 6 8 20 17 31 58 76 68 58 47 17 17 39 44 45 51